No particular awareness of the weather is required.    There are no Weather-warnings




My webcam more information My webcam


Meteosat more information Meteosat


Radar de pluja more information rain snow radar


Visita la nostra xarxa de llocs de meteo:

Template documentation
and downloads

And another site



Select another period ( hide this area )

Unitats Periode Custom range Directly to
Mètric Imperial Tant
Diari Setmana Mensual Anual
use both date-selectors for a custom range
previous Dia
With this date

WeatherUnderground graphs for this period ( click here )


Warning: Division by zero in /var/www/vhosts/5/103384/webspace/httpdocs/santgenismeteo.org/weather28/wu/WU-History4.php on line 835
Diari Resum Dissabte 18 January 2020
Temps Temp. ( °C ) Dew pt. ( °C ) Vent ( km/h ) des Rafegues ( km/h ) Pression baro ( hPa ) Humid.( % ) Rainrate ( cm ) Solar ( W/m2 )
Maxima10,0 4,2 5,0 ENE ( 25/25 ) 5,0 1027,3 68 - 0
Media8,8 0,1 0,2 calma #112/117 -1552,3 1027,0 55 - 0 #0/117
Minima7,4 -2,3 -   -1607,4 1026,3 46 -  
Diari Tabular details for Dissabte 18 January 2020
Temps Temp. ( °C ) Dew pt. ( °C ) Vent ( km/h ) des Rafegues ( km/h ) Pression baro ( hPa ) Humid.( % ) Rainrate ( cm ) Solar ( W/m2 )
00:02 9,8 -0,1   calma -1607,4 1027,3 50 - -
00:07 9,9 -0,3   calma -1607,4 1027,3 49 - -
00:12 9,9 -0,6   calma -1607,4 1027,3 48 - -
00:17 9,9 -0,6   calma -1607,4 1027,3 48 - -
00:22 9,9 -0,6 5,0 ENE 5,0 1027,3 48 - -
00:27 10,0 -0,8 5,0 ENE 5,0 1027,3 47 - -
00:32 10,0 -0,8 5,0 ENE 5,0 1027,3 47 - -
00:37 10,0 -1,1 5,0 ENE 5,0 1027,3 46 - -
00:42 9,9 -0,9 5,0 ENE -1607,4 1027,3 47 - -
00:47 9,8 -1,3   calma -1607,4 1027,3 46 - -
00:52 9,7 -1,4   calma -1607,4 1027,3 46 - -
00:57 9,5 -1,3   calma -1607,4 1027,3 47 - -
01:02 9,3 -1,4   calma -1607,4 1027,3 47 - -
01:07 9,2 -1,5   calma -1607,4 1027,3 47 - -
01:12 9,1 -1,6   calma -1607,4 1027,3 47 - -
01:17 9,1 -1,6   calma -1607,4 1027,3 47 - -
01:22 9,0 -1,7   calma -1607,4 1027,3 47 - -
01:27 9,0 -2,0   calma -1607,4 1027,3 46 - -
01:32 9,1 -1,9   calma -1607,4 1027,3 46 - -
01:37 9,1 -1,9   calma -1607,4 1027,3 46 - -
01:42 9,1 -1,9   calma -1607,4 1027,3 46 - -
01:47 9,1 -1,9   calma -1607,4 1027,3 46 - -
01:52 9,0 -2,0   calma -1607,4 1027,3 46 - -
01:57 9,0 -2,0   calma -1607,4 1027,3 46 - -
02:02 8,9 -2,1   calma -1607,4 1027,3 46 - -
02:07 8,9 -2,1   calma -1607,4 1027,3 46 - -
02:12 8,8 -2,2   calma -1607,4 1027,3 46 - -
02:17 8,7 -2,0   calma -1607,4 1027,3 47 - -
02:22 8,7 -2,0   calma -1607,4 1027,3 47 - -
02:27 8,6 -2,1   calma -1607,4 1027,3 47 - -
02:32 8,6 -2,1   calma -1607,4 1027,3 47 - -
02:37 8,6 -2,1   calma -1607,4 1027,3 47 - -
02:42 8,5 -2,2   calma -1607,4 1027,3 47 - -
02:47 8,5 -2,2   calma -1607,4 1027,3 47 - -
02:52 8,6 -2,1   calma -1607,4 1027,3 47 - -
02:57 8,5 -2,2   calma -1607,4 1027,3 47 - -
03:02 8,4 -2,3   calma -1607,4 1027,3 47 - -
03:07 8,5 -1,9   calma -1607,4 1027,3 48 - -
03:12 8,5 -1,6   calma -1607,4 1027,3 49 - -
03:17 8,6 -0,7   calma -1607,4 1027,3 52 - -
03:22 8,6 -1,0   calma -1607,4 1027,3 51 - -
03:27 8,6 -1,2   calma -1607,4 1027,3 50 - -
03:32 8,7 -0,9   calma -1607,4 1027,3 51 - -
03:37 9,1 0,8   calma -1607,4 1027,3 56 - -
03:42 9,2 0,6   calma -1607,4 1027,3 55 - -
03:47 9,3 0,7   calma -1607,4 1026,3 55 - -
03:52 9,5 1,4   calma -1607,4 1026,3 57 - -
03:57 9,4 1,1   calma -1607,4 1026,3 56 - -
04:02 9,4 1,1   calma -1607,4 1026,3 56 - -
04:07 9,3 1,2   calma -1607,4 1026,3 57 - -
04:12 9,5 2,1   calma -1607,4 1026,3 60 - -
04:17 9,8 4,0   calma -1607,4 1026,3 67 - -
04:22 9,8 3,5   calma -1607,4 1026,3 65 - -
04:27 9,7 3,2   calma -1607,4 1026,3 64 - -
04:32 9,5 2,1   calma -1607,4 1027,3 60 - -
04:37 9,3 1,5   calma -1607,4 1027,3 58 - -
04:42 9,3 1,9   calma -1607,4 1027,3 60 - -
04:47 9,4 2,3   calma -1607,4 1026,3 61 - -
04:52 9,3 1,9   calma -1607,4 1026,3 60 - -
04:57 9,4 2,3   calma -1607,4 1026,3 61 - -
05:02 9,6 3,3   calma -1607,4 1026,3 65 - -
05:07 9,6 3,3   calma -1607,4 1026,3 65 - -
05:12 9,7 3,7   calma -1607,4 1026,3 66 - -
05:17 9,8 4,2   calma -1607,4 1026,3 68 - -
05:22 9,8 4,2   calma -1607,4 1026,3 68 - -
05:27 9,6 3,6   calma -1607,4 1026,3 66 - -
05:32 9,6 3,6   calma -1607,4 1026,3 66 - -
05:37 9,7 3,9   calma -1607,4 1026,3 67 - -
05:42 9,5 3,0   calma -1607,4 1026,3 64 - -
05:47 9,5 3,0   calma -1607,4 1026,3 64 - -
05:52 9,5 3,2   calma -1607,4 1026,3 65 - -
05:57 9,4 3,2   calma -1607,4 1026,3 65 - -
06:02 9,3 2,8   calma -1607,4 1026,3 64 - -
06:07 9,2 2,7   calma -1607,4 1026,3 64 - -
06:12 9,0 2,1   calma -1607,4 1026,3 62 - -
06:17 8,9 2,0   calma -1607,4 1026,3 62 - -
06:22 8,7 1,6   calma -1607,4 1026,3 61 - -
06:27 8,5 1,2   calma -1607,4 1026,3 60 - -
06:32 8,5 1,6   calma -1607,4 1026,3 62 - -
06:37 8,6 1,7   calma -1607,4 1026,3 62 - -
06:42 8,5 1,4   calma -1607,4 1026,3 61 - -
06:47 8,2 0,7   calma -1607,4 1027,3 59 - -
06:52 8,1 0,6   calma -1607,4 1027,3 59 - -
06:57 8,0 0,5   calma -1607,4 1027,3 59 - -
07:02 7,9 0,4   calma -1607,4 1027,3 59 - -
07:07 7,7 0,0   calma -1607,4 1027,3 58 - -
07:12 7,7 0,0   calma -1607,4 1027,3 58 - -
07:17 7,7 0,0   calma -1607,4 1026,3 58 - -
07:22 7,8 0,0   calma -1607,4 1026,3 58 - -
07:27 7,6 -0,4   calma -1607,4 1026,3 57 - -
07:32 7,5 -0,7   calma -1607,4 1027,3 56 - -
07:37 7,4 -0,8   calma -1607,4 1027,3 56 - -
07:42 7,4 -0,8   calma -1607,4 1027,3 56 - -
07:47 7,4 -1,1   calma -1607,4 1027,3 55 - -
07:52 7,4 -1,1   calma -1607,4 1027,3 55 - -
07:57 7,4 -1,1   calma -1607,4 1027,3 55 - -
08:02 7,4 -1,1   calma -1607,4 1026,3 55 - -
08:07 7,5 -1,0   calma -1607,4 1026,3 55 - -
08:12 7,6 -0,9   calma -1607,4 1026,3 55 - -
08:17 7,6 -0,9   calma -1607,4 1027,3 55 - -
08:22 7,6 -0,9   calma -1607,4 1027,3 55 - -
08:27 7,6 -1,1   calma -1607,4 1027,3 54 - -
08:32 7,6 -1,1   calma -1607,4 1027,3 54 - -
08:37 7,7 -0,8   calma -1607,4 1027,3 55 - -
08:42 7,9 -0,3   calma -1607,4 1027,3 56 - -
08:47 8,1 -0,2   calma -1607,4 1027,3 56 - -
08:52 8,3 0,3   calma -1607,4 1027,3 57 - -
08:57 8,2 -0,1   calma -1607,4 1027,3 56 - -
09:02 8,2 -0,3   calma -1607,4 1027,3 55 - -
09:07 8,1 -0,4   calma -1607,4 1027,3 55 - -
09:12 8,1 -0,4   calma -1607,4 1027,3 55 - -
09:17 8,1 -0,4   calma -1607,4 1027,3 55 - -
09:22 8,1 -0,4   calma -1607,4 1027,3 55 - -
09:27 8,1 -0,4   calma -1607,4 1027,3 55 - -
09:32 8,2 -0,3   calma -1607,4 1027,3 55 - -
09:37 8,3 -0,2   calma -1607,4 1027,3 55 - -
09:42 8,3 -0,2   calma -1607,4 1027,3 55 - -
Diari Resum Dissabte 18 January 2020
Temps Temp. ( °C ) Dew pt. ( °C ) Vent ( km/h ) des Rafegues ( km/h ) Pression baro ( hPa ) Humid.( % ) Rainrate ( cm ) Solar ( W/m2 )
Maxima10,0 4,2 5,0 ENE ( 25/25 ) 5,0 1027,3 68 - 0
Media8,8 0,1 0,2 calma #112/117 -1552,3 1027,0 55 - 0 #0/117
Minima7,4 -2,3 -   -1607,4 1026,3 46 -  
Diari Tabular details for Dissabte 18 January 2020
Temps Temp. ( °C ) Dew pt. ( °C ) Vent ( km/h ) des Rafegues ( km/h ) Pression baro ( hPa ) Humid.( % ) Rainrate ( cm ) Solar ( W/m2 )
00:02 9,8 -0,1   calma -1607,4 1027,3 50 - -
00:07 9,9 -0,3   calma -1607,4 1027,3 49 - -
00:12 9,9 -0,6   calma -1607,4 1027,3 48 - -
00:17 9,9 -0,6   calma -1607,4 1027,3 48 - -
00:22 9,9 -0,6 5,0 ENE 5,0 1027,3 48 - -
00:27 10,0 -0,8 5,0 ENE 5,0 1027,3 47 - -
00:32 10,0 -0,8 5,0 ENE 5,0 1027,3 47 - -
00:37 10,0 -1,1 5,0 ENE 5,0 1027,3 46 - -
00:42 9,9 -0,9 5,0 ENE -1607,4 1027,3 47 - -
00:47 9,8 -1,3   calma -1607,4 1027,3 46 - -
00:52 9,7 -1,4   calma -1607,4 1027,3 46 - -
00:57 9,5 -1,3   calma -1607,4 1027,3 47 - -
01:02 9,3 -1,4   calma -1607,4 1027,3 47 - -
01:07 9,2 -1,5   calma -1607,4 1027,3 47 - -
01:12 9,1 -1,6   calma -1607,4 1027,3 47 - -
01:17 9,1 -1,6   calma -1607,4 1027,3 47 - -
01:22 9,0 -1,7   calma -1607,4 1027,3 47 - -
01:27 9,0 -2,0   calma -1607,4 1027,3 46 - -
01:32 9,1 -1,9   calma -1607,4 1027,3 46 - -
01:37 9,1 -1,9   calma -1607,4 1027,3 46 - -
01:42 9,1 -1,9   calma -1607,4 1027,3 46 - -
01:47 9,1 -1,9   calma -1607,4 1027,3 46 - -
01:52 9,0 -2,0   calma -1607,4 1027,3 46 - -
01:57 9,0 -2,0   calma -1607,4 1027,3 46 - -
02:02 8,9 -2,1   calma -1607,4 1027,3 46 - -
02:07 8,9 -2,1   calma -1607,4 1027,3 46 - -
02:12 8,8 -2,2   calma -1607,4 1027,3 46 - -
02:17 8,7 -2,0   calma -1607,4 1027,3 47 - -
02:22 8,7 -2,0   calma -1607,4 1027,3 47 - -
02:27 8,6 -2,1   calma -1607,4 1027,3 47 - -
02:32 8,6 -2,1   calma -1607,4 1027,3 47 - -
02:37 8,6 -2,1   calma -1607,4 1027,3 47 - -
02:42 8,5 -2,2   calma -1607,4 1027,3 47 - -
02:47 8,5 -2,2   calma -1607,4 1027,3 47 - -
02:52 8,6 -2,1   calma -1607,4 1027,3 47 - -
02:57 8,5 -2,2   calma -1607,4 1027,3 47 - -
03:02 8,4 -2,3   calma -1607,4 1027,3 47 - -
03:07 8,5 -1,9   calma -1607,4 1027,3 48 - -
03:12 8,5 -1,6   calma -1607,4 1027,3 49 - -
03:17 8,6 -0,7   calma -1607,4 1027,3 52 - -
03:22 8,6 -1,0   calma -1607,4 1027,3 51 - -
03:27 8,6 -1,2   calma -1607,4 1027,3 50 - -
03:32 8,7 -0,9   calma -1607,4 1027,3 51 - -
03:37 9,1 0,8   calma -1607,4 1027,3 56 - -
03:42 9,2 0,6   calma -1607,4 1027,3 55 - -
03:47 9,3 0,7   calma -1607,4 1026,3 55 - -
03:52 9,5 1,4   calma -1607,4 1026,3 57 - -
03:57 9,4 1,1   calma -1607,4 1026,3 56 - -
04:02 9,4 1,1   calma -1607,4 1026,3 56 - -
04:07 9,3 1,2   calma -1607,4 1026,3 57 - -
04:12 9,5 2,1   calma -1607,4 1026,3 60 - -
04:17 9,8 4,0   calma -1607,4 1026,3 67 - -
04:22 9,8 3,5   calma -1607,4 1026,3 65 - -
04:27 9,7 3,2   calma -1607,4 1026,3 64 - -
04:32 9,5 2,1   calma -1607,4 1027,3 60 - -
04:37 9,3 1,5   calma -1607,4 1027,3 58 - -
04:42 9,3 1,9   calma -1607,4 1027,3 60 - -
04:47 9,4 2,3   calma -1607,4 1026,3 61 - -
04:52 9,3 1,9   calma -1607,4 1026,3 60 - -
04:57 9,4 2,3   calma -1607,4 1026,3 61 - -
05:02 9,6 3,3   calma -1607,4 1026,3 65 - -
05:07 9,6 3,3   calma -1607,4 1026,3 65 - -
05:12 9,7 3,7   calma -1607,4 1026,3 66 - -
05:17 9,8 4,2   calma -1607,4 1026,3 68 - -
05:22 9,8 4,2   calma -1607,4 1026,3 68 - -
05:27 9,6 3,6   calma -1607,4 1026,3 66 - -
05:32 9,6 3,6   calma -1607,4 1026,3 66 - -
05:37 9,7 3,9   calma -1607,4 1026,3 67 - -
05:42 9,5 3,0   calma -1607,4 1026,3 64 - -
05:47 9,5 3,0   calma -1607,4 1026,3 64 - -
05:52 9,5 3,2   calma -1607,4 1026,3 65 - -
05:57 9,4 3,2   calma -1607,4 1026,3 65 - -
06:02 9,3 2,8   calma -1607,4 1026,3 64 - -
06:07 9,2 2,7   calma -1607,4 1026,3 64 - -
06:12 9,0 2,1   calma -1607,4 1026,3 62 - -
06:17 8,9 2,0   calma -1607,4 1026,3 62 - -
06:22 8,7 1,6   calma -1607,4 1026,3 61 - -
06:27 8,5 1,2   calma -1607,4 1026,3 60 - -
06:32 8,5 1,6   calma -1607,4 1026,3 62 - -
06:37 8,6 1,7   calma -1607,4 1026,3 62 - -
06:42 8,5 1,4   calma -1607,4 1026,3 61 - -
06:47 8,2 0,7   calma -1607,4 1027,3 59 - -
06:52 8,1 0,6   calma -1607,4 1027,3 59 - -
06:57 8,0 0,5   calma -1607,4 1027,3 59 - -
07:02 7,9 0,4   calma -1607,4 1027,3 59 - -
07:07 7,7 0,0   calma -1607,4 1027,3 58 - -
07:12 7,7 0,0   calma -1607,4 1027,3 58 - -
07:17 7,7 0,0   calma -1607,4 1026,3 58 - -
07:22 7,8 0,0   calma -1607,4 1026,3 58 - -
07:27 7,6 -0,4   calma -1607,4 1026,3 57 - -
07:32 7,5 -0,7   calma -1607,4 1027,3 56 - -
07:37 7,4 -0,8   calma -1607,4 1027,3 56 - -
07:42 7,4 -0,8   calma -1607,4 1027,3 56 - -
07:47 7,4 -1,1   calma -1607,4 1027,3 55 - -
07:52 7,4 -1,1   calma -1607,4 1027,3 55 - -
07:57 7,4 -1,1   calma -1607,4 1027,3 55 - -
08:02 7,4 -1,1   calma -1607,4 1026,3 55 - -
08:07 7,5 -1,0   calma -1607,4 1026,3 55 - -
08:12 7,6 -0,9   calma -1607,4 1026,3 55 - -
08:17 7,6 -0,9   calma -1607,4 1027,3 55 - -
08:22 7,6 -0,9   calma -1607,4 1027,3 55 - -
08:27 7,6 -1,1   calma -1607,4 1027,3 54 - -
08:32 7,6 -1,1   calma -1607,4 1027,3 54 - -
08:37 7,7 -0,8   calma -1607,4 1027,3 55 - -
08:42 7,9 -0,3   calma -1607,4 1027,3 56 - -
08:47 8,1 -0,2   calma -1607,4 1027,3 56 - -
08:52 8,3 0,3   calma -1607,4 1027,3 57 - -
08:57 8,2 -0,1   calma -1607,4 1027,3 56 - -
09:02 8,2 -0,3   calma -1607,4 1027,3 55 - -
09:07 8,1 -0,4   calma -1607,4 1027,3 55 - -
09:12 8,1 -0,4   calma -1607,4 1027,3 55 - -
09:17 8,1 -0,4   calma -1607,4 1027,3 55 - -
09:22 8,1 -0,4   calma -1607,4 1027,3 55 - -
09:27 8,1 -0,4   calma -1607,4 1027,3 55 - -
09:32 8,2 -0,3   calma -1607,4 1027,3 55 - -
09:37 8,3 -0,2   calma -1607,4 1027,3 55 - -
09:42 8,3 -0,2   calma -1607,4 1027,3 55 - -

Download your copy of this data-set  here

Our weather-data as stored at Weather Underground. Guio original per Jim McMurry. Adaptat per a la plantilla per Leuven-Template.eu

Trobareu la nostra informacio del temps tambe a:

European Weather Network

WeatherCloud

Weather Underground

Meteoclimatic

Equip utilitzat:

Weather-program
Weather Display

Weather-server
RaspberryPI 2

Proveidor

Weather Display

RaspberryPI 2